Regional Weather Roundup
Issued by NWS

Home | Current Version | Previous Version | Graphics & Text | Print | Product List | Glossary On
Versions: 1 2 3 4 5 6 7 8 9 10 11 12 13 14 15 16 17 18 19 20 21 22 23 24 25 26 27 28 29 30 31 32 33 34 35 36 37 38 39 40 41 42 43 44 45 46 47 48 49 50
841
ASUS45 KCYS 202010
RWRWY

WYOMING REGIONAL WEATHER ROUNDUP
NATIONAL WEATHER SERVICE CHEYENNE WY
100 PM MST MON FEB 20 2017

NOTE:  "FAIR" INDICATES FEW OR NO CLOUDS BELOW 12,000 FEET
WITH NO SIGNIFICANT WEATHER AND/OR OBSTRUCTIONS TO VISIBILITY.

WYZ001-202100-
YELLOWSTONE NATIONAL PARK

CITY           SKY/WX    TMP DP  RH WIND       PRES   REMARKS
LK YELLOWSTONE   N/A     31  30  96 VRB5      29.88F WCI  26
W YELLOWSTONE  NOT AVBL

$$
WYZ002>013-054>058-071-098>099-202100-
NORTHERN WYOMING

CITY           SKY/WX    TMP DP  RH WIND       PRES   REMARKS
JACKSON        LGT SNOW  32  30  93 SW9       29.94F VSB 1   WCI  24
CODY           FAIR      51  26  37 SW17G25   29.78F
GREYBULL       FAIR      49  28  44 SE13      29.81F
WORLAND        FAIR      50  29  44 S13       29.81F
SHERIDAN       FAIR      53  25  33 SE22      29.75F
BUFFALO        FAIR      58  20  22 SW15G22   29.79F
GILLETTE       FAIR      55  21  26 SW20G29   29.82F
HULETT         FAIR      54  25  32 SW17G24   29.82F
NEWCASTLE      FAIR      55  14  19 W13G18    29.87F

$$
WYZ014>020-022>026-101>103-202100-
CENTRAL WYOMING

CITY           SKY/WX    TMP DP  RH WIND       PRES   REMARKS
BIG PINEY      PTSUNNY   28  25  88 SE10      30.04F WCI  19
PINEDALE       CLOUDY    32  28  86 SE13      30.04F WCI  22
DUBOIS         MOCLDY    37  27  65 W23G32    29.88F WCI  26
LANDER         FAIR      53  24  32 N20G29    29.86F
RIVERTON       FAIR      42  25  50 CALM      29.89F
CASPER         LGT RAIN  51  28  41 SW33G43   29.92F
DOUGLAS        FAIR      56  24  29 SW22G32   29.91F

$$
WYZ021-027>030-104>119-202100-
SOUTHERN WYOMING

CITY           SKY/WX    TMP DP  RH WIND       PRES   REMARKS
EVANSTON       FAIR      39  27  62 SW20      30.02F WCI  29
KEMMERER         N/A     39  28  65 SW16      30.03F WCI  30
FORT BRIDGER   FAIR      44  29  56 W10G22    30.06F
ROCK SPRINGS   FAIR      43  27  53 SW9       30.05F
DIXON            N/A     43  32  64 S15G24    30.16F
RAWLINS        FAIR      42  30  62 SW26G40   30.04F
SARATOGA       FAIR      45  27  49 SW25G33   30.07F
LARAMIE        FAIR      47  18  31 SW23G33   30.03R
CHEYENNE       FAIR      54  15  21 W23G32    29.99R
TORRINGTON     FAIR      60  15  17 W22G28    29.92F
PINE BLUFFS    FAIR      57  16  19 NW24G36   29.97S

$$




USA.gov is the U.S. government's official web portal to all federal, state and local government web resources and services.